Location: Lombard
(41.8800°N, 88.0080°W)
Time: 04:23:09
(UTC-05:00)

Vanguard 2 Rocket - Pass Details

Date: 26 February 2024
Orbit: 555 x 3307 km, 32.9° (Epoch: 12 April)

Event Time Altitude Azimuth Distance (km) Brightness Sun altitude
Rises 17:18:55 0° 269° (W) 5,067 12.8 2.7°
Reaches altitude 10° 17:21:49 10° 264° (W) 4,384 12.7 2.2°
Maximum altitude 17:34:25 55° 192° (SSW) 3,129 9.8 -0.1°
Drops below altitude 10° 17:53:04 10° 122° (ESE) 6,244 10.7 -3.5°
Sets 17:58:11 0° 119° (ESE) 7,278 11.0 -4.5°
